Regional Weather Roundup
Issued by NWS Northern Indiana

Home | Current Version | Previous Version | Text Only | Print | Product List | Glossary On
Versions: 1 2 3 4 5 6 7 8 9 10 11 12 13 14 15 16 17 18 19 20 21 22 23 24 25 26 27 28 29 30 31 32 33 34 35 36 37 38 39 40 41 42 43 44 45 46 47 48 49 50
000
ASUS43 KIWX 200710
RWRIWX

KIWX WEATHER ROUNDUP
NATIONAL WEATHER SERVICE NORTHERN INDIANA
200 AM EST SAT DEC 20 2014

NOTE: "FAIR" INDICATES FEW OR NO CLOUDS BELOW 12,000 FEET WITH NO
SIGNIFICANT WEATHER AND/OR OBSTRUCTIONS TO VISIBILITY.

* THESE STATIONS ARE NOT UNDER NWS QUALITY CONTROL. THEY ALSO MAY NOT
  REPORT WEATHER SUCH AS PRECIPITATION OR FOG.

INZ001>027-200800-
NORTHERN INDIANA

CITY           SKY/WX    TMP DP  RH WIND       PRES   REMARKS
GARY*          CLOUDY    33  20  59 CALM      30.28S
VALPARAISO     CLOUDY    30  23  75 W6        30.27S WCI  24
MICHIGAN CITY* CLOUDY    32  21  64 S3        30.27S
LAPORTE*       CLOUDY    32  26  80 CALM      30.27S
KNOX*          CLOUDY    30  24  78 CALM      30.26S
SOUTH BEND     CLOUDY    30  21  69 CALM      30.27R
GOSHEN         CLOUDY    25  22  88 S3        30.25F
MONTICELLO*    CLOUDY    29  28  96 CALM      30.27S FOG
LOGANSPORT*    CLOUDY    30  27  86 W3        30.28S FOG
ROCHESTER*     CLOUDY    32  30  93 SW3       30.27S
WARSAW*        CLOUDY    28  27  93 CALM      30.25F
ANGOLA*        CLEAR     19  18  93 CALM      30.24F
FORT WAYNE     CLOUDY    25  22  88 CALM      30.27R
HUNTINGTON*    CLOUDY    27  27  97 CALM      30.26R FOG
PERU/GRISSOM   CLOUDY    29  29 100 W2        30.26S
MARION*        CLOUDY    28  28  97 CALM      30.27S FOG

$$
INZ028>050-200800-
CENTRAL INDIANA

CITY           SKY/WX    TMP DP  RH WIND       PRES   REMARKS
LAFAYETTE      CLOUDY    28  27  96 CALM      30.28S FOG
KOKOMO*        CLOUDY    28  27  93 W3        30.26S
MUNCIE*        CLOUDY    29  26  89 CALM      30.25S
INDIANAPOLIS   CLOUDY    28  23  81 S5        30.26S WCI  23

$$
MIZ043>046-050>051-056>058-064>065-071>073-077>080-200800-
SOUTHWEST LOWER MICHIGAN

CITY           SKY/WX    TMP DP  RH WIND       PRES   REMARKS
BATTLE CREEK   CLEAR     19  16  88 CALM      30.26R
BENTON HARBOR  MOCLDY    27  21  78 CALM      30.27R
COLDWATER*     CLOUDY    24  23  95 MISG      30.25S FOG
HILLSDALE*     CLOUDY    26  25  96 CALM      30.23S FOG
HOLLAND        PTCLDY    24  19  81 CALM      30.27S
GRAND RAPIDS   CLEAR     20  17  88 CALM      30.26S
KALAMAZOO      PTCLDY    22  18  85 CALM      30.26S FOG
STURGIS*       MOCLDY    21  19  93 CALM      30.25R FOG
THREE RIVERS*  FAIR      22  20  92 CALM      30.27R FOG

$$
OHZ001>008-015>018-024>025-200800-
NORTHWEST OHIO

CITY           SKY/WX    TMP DP  RH WIND       PRES   REMARKS
WAUSEON*       CLOUDY    28  21  74 SE3       30.27R
DEFIANCE       CLOUDY    29  24  82 N3        30.27S
FINDLAY        CLOUDY    30  22  72 SE3       30.25S
TOLEDO EXPRESS CLOUDY    29  20  69 CALM      30.27S
TOLEDO METCALF CLOUDY    30  23  75 E3        30.28S
LIMA           CLOUDY    30  23  75 CALM      30.24F

$$
AND FOR LAKE MICHIGAN COASTAL AND OPEN LAKE BUOY OBSERVATIONS

STATION/POSITION TEMP    WIND        PRES    VSBY  WAVE
                 AIR SEA DIR/SP/G                  HT/PER
                 (F)     (DEG/KT/KT) (MB)    (MI)  (FT/S)
CALUMET HARBOR    32     210/  4/  6 1023.9R
SAINT JOSEPH      30      CALM  /  3 1025.1F

$$
&&


USA.gov is the U.S. government's official web portal to all federal, state and local government web resources and services.